[[{"header":{"parameterUnit":"m.s-1","parameterCategory":1,"la1":30.2991,"la2":30.254,"lo1":-89.0895,"lo2":-89.0444,"dy":0.0017,"dx":0.0017,"nx":28,"ny":28,"refTime":"2025-08-13T09:00:00:Z","depth":0,"parameterNumber":2,"parameterNumberName":"U-component_of_WINDS"},"data":[0,0,0,0,0,0,0,0,0,0,0,0,0,0,0,0,0,0,0,0,0,0,0,0,0,0,0,0,0,0,0,0,0,0,0,0,0,0,0,0,0,0,0,0,0,0,0,0,0,0,0,0,0,0,0,0,0,0,0.9209,0.921,0,0.9322,0.9323,0.9325,0.9386,0.9386,0.9386,0.9386,0.9506,0.9509,0.9512,0,0,0,0,0,0,0,0,0,0,0,0,0,0.905,0.9053,0.9209,0.921,0.9211,0.9322,0.9323,0.9325,0.9386,0.9386,0.9386,0.9386,0.9505,0.9508,0.9512,0,0,0,0,0,0,0,0,0,0,0,0,0,0.9137,0.9053,0.9208,0.9255,0.926,0.9321,0.9323,0.9325,0.9385,0.9386,0.9386,0.9386,0.9504,0.9508,0.9513,0.9538,0,0,0.9527,0.9529,0,0,0,0,0,0,0,0,0.9132,0.9142,0.9247,0.9252,0.9258,0.934,0.9311,0.9397,0.9385,0.9338,0.9386,0.9386,0.9451,0.946,0.9481,0.9543,0.9548,0.9527,0.953,0.9532,0.9533,0,0,0,0,0,0,0,0.9126,0.9138,0.9254,0.9248,0.9255,0.9272,0.9284,0.9328,0.9392,0.9342,0.9347,0.9359,0.9454,0.9476,0.9484,0.955,0.9527,0.9531,0.9534,0.9536,0.9641,0.9641,0,0,0,0,0,0,0.9111,0.9132,0.925,0.9257,0.9194,0.9275,0.9289,0.9313,0.9392,0.9404,0.9359,0.9362,0.9468,0.9478,0.9488,0.9523,0.9532,0.9536,0.9539,0.9641,0.9641,0.9641,0,0,0,0,0,0,0.9108,0.9121,0.9245,0.9196,0.9213,0.9277,0.9304,0.9315,0.9338,0.9404,0.9417,0.9369,0.9469,0.9482,0.9525,0.9528,0.9538,0.9543,0.9641,0.9641,0.9641,0.9593,0,0,0,0,0,0,0.9103,0.912,0.9128,0.9196,0.9215,0.9278,0.9305,0.9318,0.9345,0.935,0.9417,0.9429,0.947,0.9518,0.953,0.9535,0.9546,0.9641,0.9641,0.9641,0.9595,0.9591,0.9589,0,0,0,0,0,0.9097,0.9111,0.9128,0.9142,0.9227,0.9278,0.929,0.9335,0.9345,0.9355,0.9398,0.9427,0.9526,0.9522,0.9535,0.9542,0.9641,0.9641,0.9641,0.9596,0.9592,0.9589,0,0,0,0,0,0,0.9043,0.912,0.9141,0.9176,0.922,0.9288,0.9302,0.933,0.9372,0.9375,0.9431,0.9446,0.9484,0.9518,0.9511,0.9572,0.9587,0.9589,0.9548,0.9545,0.9542,0.9533,0.955,0,0,0,0,0,0.9035,0.9068,0.9135,0.916,0.9181,0.9238,0.9262,0.9293,0.9341,0.936,0.9407,0.9454,0.9496,0.9522,0.9565,0.96,0.9617,0.9612,0.9609,0.9606,0.9608,0.9631,0.963,0.9641,0.9641,0.9641,0,0,0.9019,0.9065,0.9083,0.915,0.9188,0.9223,0.9253,0.9288,0.9315,0.9366,0.9409,0.9445,0.9502,0.9541,0.9561,0.9571,0.9609,0.9606,0.9604,0.9607,0.9631,0.9629,0.9628,0.9641,0.9641,0.9641,0,0,0.9007,0.9045,0.9071,0.9108,0.9165,0.9203,0.9209,0.9274,0.9299,0.9343,0.9383,0.9417,0.9488,0.9527,0.9556,0.9561,0.959,0.9574,0.9558,0.958,0.9579,0.9578,0.9581,0.9581,0.9575,0.9575,0.9575,0,0.898,0.9033,0.9081,0.9114,0.9143,0.9191,0.9218,0.9253,0.932,0.934,0.935,0.9441,0.9482,0.9532,0.9533,0.9555,0.9565,0.9566,0.9575,0.9575,0.9575,0.9578,0.9579,0.9573,0.9573,0.9574,0.9574,0,0.8997,0.9034,0.9048,0.9111,0.9142,0.9172,0.9227,0.9253,0.9282,0.932,0.9366,0.9417,0.9471,0.9486,0.9515,0.9541,0.9545,0.9564,0.958,0.9571,0.9575,0.9577,0.957,0.9571,0.9571,0.9572,0,0,0.8952,0.9044,0.9048,0.9078,0.9145,0.9175,0.9209,0.9261,0.9282,0.9328,0.9359,0.9419,0.9437,0.947,0.9505,0.9524,0.9526,0.9541,0.9543,0.9536,0.9559,0.9543,0.9544,0.9545,0.9546,0.9546,0.9554,0,0.895,0.9011,0.9056,0.91,0.9135,0.9182,0.9212,0.9257,0.9294,0.9331,0.9372,0.9414,0.9435,0.9455,0.9476,0.9521,0.9531,0.9521,0.9576,0.9577,0.9559,0.9546,0.953,0.9534,0.9556,0.9556,0.9556,0,0.8955,0.8999,0.9046,0.9111,0.9128,0.9153,0.9205,0.9239,0.9293,0.9319,0.9356,0.9392,0.9432,0.9445,0.9501,0.9493,0.9519,0.9545,0.9546,0.9552,0.9565,0.9552,0.9537,0.9537,0.9559,0.9559,0.9559,0,0.8918,0.8989,0.9027,0.9051,0.9128,0.9145,0.9178,0.9232,0.9261,0.9307,0.9327,0.9378,0.9406,0.9445,0.9495,0.95,0.9546,0.9564,0.957,0.9569,0.9577,0.9576,0.9565,0.9594,0.9594,0.9594,0.9593,0,0.891,0.8937,0.9011,0.9034,0.9067,0.912,0.9151,0.9189,0.9237,0.9269,0.9314,0.9344,0.9408,0.9446,0.9485,0.9527,0.9539,0.9562,0.9572,0.9558,0.9555,0.9574,0.9575,0.9594,0.9594,0.9594,0.9594,0,0.8872,0.8923,0.8967,0.9037,0.9056,0.9076,0.9137,0.9162,0.9203,0.9243,0.9256,0.932,0.9367,0.9421,0.9487,0.9513,0.9552,0.9567,0.9533,0.9539,0.9542,0.9541,0.9544,0.9548,0.9573,0.9573,0.9573,0,0.8864,0.8886,0.8958,0.8983,0.9014,0.9053,0.9084,0.9138,0.9168,0.9232,0.925,0.9301,0.9344,0.9419,0.9472,0.9523,0.9539,0.9537,0.9547,0.9533,0.954,0.9537,0.954,0.9533,0.9533,0.9532,0.9532,0,0.8843,0.8867,0.8908,0.8959,0.8993,0.9036,0.908,0.9098,0.9162,0.9194,0.9243,0.9277,0.9344,0.9395,0.9453,0.9489,0.9522,0.9529,0.9533,0.9518,0.9498,0.9509,0.9525,0.9528,0.9528,0.9529,0.9529,0.9529,0.8819,0.8842,0.8896,0.8941,0.8981,0.9022,0.9049,0.9094,0.9135,0.9193,0.9224,0.9273,0.9329,0.941,0.9445,0.9486,0.9496,0.9502,0.9504,0.9504,0.95,0.9492,0.9496,0.9497,0.9497,0.9497,0.9497,0,0.8801,0.8839,0.888,0.8941,0.8976,0.9004,0.9056,0.9084,0.9126,0.9175,0.9217,0.9275,0.9325,0.9382,0.9436,0.9458,0.9474,0.947,0.9469,0.9477,0.9487,0.9478,0.9456,0.9456,0.9456,0.9456,0.9456,0.9456,0.8795,0.8834,0.8866,0.8926,0.8965,0.9013,0.904,0.9079,0.9118,0.918,0.9222,0.9259,0.9312,0.9371,0.9418,0.9434,0.9452,0.9444,0.9464,0.9473,0.9476,0.9479,0.9471,0.9447,0.9447,0.945,0.945,0.945]},{"header":{"parameterUnit":"m.s-1","parameterCategory":1,"la1":30.2991,"la2":30.254,"lo1":-89.0895,"lo2":-89.0444,"dy":0.0017,"dx":0.0017,"nx":28,"ny":28,"refTime":"2025-08-13T09:00:00:Z","depth":0,"parameterNumber":3,"parameterNumberName":"V-component_of_WINDS"},"data":[0,0,0,0,0,0,0,0,0,0,0,0,0,0,0,0,0,0,0,0,0,0,0,0,0,0,0,0,0,0,0,0,0,0,0,0,0,0,0,0,0,0,0,0,0,0,0,0,0,0,0,0,0,0,0,0,0,0,4.7485,4.7485,0,4.7489,4.749,4.749,4.7486,4.7486,4.7486,4.7486,4.7489,4.749,4.749,0,0,0,0,0,0,0,0,0,0,0,0,0,4.7472,4.7472,4.7485,4.7485,4.7485,4.7489,4.749,4.749,4.7486,4.7486,4.7486,4.7485,4.7489,4.749,4.749,0,0,0,0,0,0,0,0,0,0,0,0,0,4.7477,4.7473,4.7485,4.7484,4.7484,4.7489,4.749,4.749,4.7486,4.7486,4.7486,4.7485,4.7489,4.749,4.749,4.7497,0,0,4.7491,4.7491,0,0,0,0,0,0,0,0,4.7477,4.7478,4.7484,4.7484,4.7484,4.7487,4.7487,4.7492,4.7486,4.7485,4.7486,4.7485,4.7489,4.7489,4.7491,4.7497,4.7497,4.7491,4.7491,4.7492,4.7492,0,0,0,0,0,0,0,4.7477,4.7478,4.7487,4.7484,4.7484,4.7483,4.7483,4.7488,4.7488,4.7485,4.7485,4.7486,4.7489,4.749,4.7491,4.7497,4.7491,4.7491,4.7492,4.7492,4.751,4.751,0,0,0,0,0,0,4.7477,4.7477,4.7486,4.7487,4.748,4.7483,4.7484,4.7486,4.7488,4.7488,4.7486,4.7485,4.749,4.749,4.7491,4.7499,4.7492,4.7492,4.7492,4.751,4.751,4.751,0,0,0,0,0,0,4.7476,4.7477,4.7486,4.7482,4.7483,4.7484,4.7486,4.7486,4.7488,4.7489,4.7489,4.7487,4.7489,4.749,4.7495,4.7499,4.7492,4.7492,4.7509,4.751,4.751,4.7515,0,0,0,0,0,0,4.7476,4.7477,4.748,4.7482,4.7483,4.7491,4.7487,4.7487,4.7489,4.7488,4.749,4.749,4.7489,4.7495,4.7496,4.7499,4.7493,4.7509,4.751,4.751,4.7515,4.7516,4.7517,0,0,0,0,0,4.7475,4.7481,4.748,4.7481,4.7487,4.7491,4.7492,4.7491,4.7489,4.7491,4.7492,4.749,4.7499,4.7496,4.7496,4.75,4.7509,4.7509,4.751,4.7514,4.7516,4.7517,0,0,0,0,0,0,4.7479,4.7481,4.748,4.7487,4.7489,4.7491,4.7494,4.7493,4.7495,4.7495,4.7494,4.7494,4.75,4.7501,4.7497,4.7507,4.7503,4.7504,4.7506,4.7508,4.7508,4.7508,4.7493,0,0,0,0,0,4.7481,4.7484,4.7486,4.7492,4.7493,4.7493,4.7495,4.7495,4.7497,4.7498,4.7498,4.75,4.7504,4.7506,4.7509,4.7515,4.7515,4.7518,4.7519,4.752,4.752,4.7524,4.7525,4.7512,4.7512,4.7512,0,0,4.7484,4.7485,4.7488,4.7492,4.7494,4.7498,4.7494,4.7498,4.7501,4.7498,4.7503,4.7504,4.7506,4.7512,4.7515,4.7513,4.7524,4.7521,4.7521,4.7521,4.7525,4.7526,4.7527,4.7513,4.7512,4.7512,0,0,4.7491,4.7493,4.7498,4.75,4.7503,4.7503,4.7504,4.7506,4.7507,4.7512,4.751,4.7513,4.7519,4.752,4.7522,4.7531,4.7529,4.7532,4.7537,4.754,4.7541,4.7542,4.7545,4.7546,4.7532,4.7532,4.7533,0,4.7495,4.7501,4.7501,4.7505,4.7507,4.7505,4.751,4.7512,4.7515,4.7517,4.7515,4.7522,4.7523,4.7529,4.7531,4.7533,4.7534,4.7531,4.7541,4.7542,4.7543,4.7546,4.7547,4.7533,4.7533,4.7533,4.7533,0,4.7505,4.7509,4.7513,4.7516,4.7519,4.7524,4.7524,4.7526,4.7526,4.7526,4.7532,4.7533,4.7537,4.7538,4.7537,4.7545,4.7543,4.7541,4.7537,4.7544,4.7547,4.7548,4.7533,4.7533,4.7533,4.7533,0,0,4.7514,4.7518,4.752,4.7522,4.7525,4.7528,4.7532,4.7536,4.7538,4.7541,4.7544,4.7549,4.7547,4.7549,4.7549,4.7552,4.7559,4.7549,4.7549,4.7551,4.7567,4.7568,4.757,4.7558,4.7558,4.7558,4.7567,0,4.7522,4.753,4.7531,4.7538,4.7542,4.7541,4.7545,4.7547,4.7548,4.7551,4.7552,4.7555,4.7552,4.7553,4.7557,4.7557,4.7562,4.7557,4.7561,4.7561,4.756,4.7571,4.7573,4.758,4.7568,4.7568,4.7568,0,4.7532,4.7535,4.7543,4.7546,4.7548,4.7552,4.7555,4.7558,4.7561,4.7561,4.7563,4.7563,4.7567,4.7563,4.757,4.7566,4.7568,4.7569,4.7569,4.7569,4.7565,4.7571,4.7583,4.7584,4.757,4.7569,4.7569,0,4.7538,4.7545,4.755,4.7552,4.7555,4.7558,4.756,4.7562,4.7564,4.7567,4.7569,4.7572,4.7574,4.7576,4.7576,4.7574,4.7583,4.7579,4.7583,4.7583,4.7585,4.7585,4.7597,4.7586,4.7586,4.7586,4.7586,0,4.7547,4.7552,4.7553,4.7557,4.7562,4.7563,4.7568,4.7569,4.7571,4.7575,4.7574,4.7577,4.7577,4.7581,4.7581,4.7586,4.7587,4.7587,4.7587,4.7587,4.7587,4.7588,4.7587,4.7586,4.7586,4.7586,4.7586,0,4.7554,4.7555,4.7562,4.7565,4.7566,4.757,4.7572,4.7575,4.7576,4.7581,4.7582,4.7583,4.7587,4.7587,4.7592,4.7592,4.7598,4.7598,4.7597,4.7597,4.7601,4.7601,4.7614,4.7616,4.7604,4.7605,4.7605,0,4.7559,4.7563,4.7567,4.757,4.7571,4.7575,4.7578,4.7578,4.7581,4.7585,4.7587,4.7591,4.7595,4.7601,4.7602,4.7605,4.7605,4.7609,4.7605,4.7605,4.7605,4.7605,4.7605,4.761,4.761,4.761,4.761,0,4.7569,4.7569,4.7573,4.7577,4.7581,4.7584,4.7587,4.7589,4.759,4.7593,4.7597,4.7599,4.7604,4.7608,4.7612,4.7613,4.7612,4.7612,4.7613,4.7613,4.7613,4.7613,4.7599,4.7611,4.7611,4.7611,4.7611,4.7611,4.7575,4.7579,4.7582,4.7586,4.7589,4.7592,4.7595,4.7597,4.76,4.7605,4.7605,4.7609,4.7612,4.7617,4.7618,4.7622,4.762,4.7622,4.7622,4.7623,4.7623,4.7612,4.7622,4.7622,4.7622,4.7622,4.7622,0,4.7584,4.7587,4.7591,4.7595,4.7599,4.7598,4.7601,4.7604,4.7608,4.7611,4.7615,4.762,4.7623,4.7625,4.7629,4.7631,4.7631,4.7632,4.7632,4.7632,4.7624,4.7623,4.7633,4.7633,4.7633,4.7633,4.7633,4.7633,4.759,4.7596,4.7597,4.7604,4.7606,4.7611,4.7613,4.7616,4.7618,4.7624,4.7627,4.7628,4.7631,4.7635,4.7638,4.7639,4.764,4.7642,4.7642,4.7634,4.7633,4.7632,4.7631,4.7642,4.7642,4.765,4.765,4.765]}]]